EW1109 Weather Reports


Display with metric or nautical units.
time (UTC)temp
F
wind
direction
speed
MPH
gust
MPH
rain 1hr
in
rain 24hr
in
rain mn
in
humidity
%
barometer
mb
20260506140048 39 260 3.0 8.0 0.00 0.00 0.00 27 1013.3
20260506134543 39 231 3.0 8.0 0.00 0.00 0.00 29 1013.2
20260506133040 38 255 2.0 7.0 0.00 0.00 0.00 28 1013.1
20260506131543 38 239 2.0 9.0 0.00 0.00 0.00 28 1013.1
20260506130031 38 236 2.0 8.0 0.00 0.00 0.00 30 1013.0
20260506124531 38 214 1.0 7.0 0.00 0.00 0.00 37 1013.0
20260506123022 37 232 0.0 5.0 0.00 0.00 0.00 34 1012.8
20260506121505 37 247 1.0 7.0 0.00 0.00 0.00 31 1012.7
20260506120002 37 241 0.0 6.0 0.00 0.00 0.00 22 1012.6
20260506114558 36 246 1.0 5.0 0.00 0.00 0.00 4 1012.4
20260506113055 35 261 0.0 3.0 0.00 0.00 0.00 100 1012.2
20260506111548 33 234 0.0 2.0 0.00 0.00 0.00 100 1011.9
20260506110045 32 314 0.0 0.0 0.00 0.00 0.00 100 1011.9
20260506104544 31 315 0.0 0.0 0.00 0.00 0.00 100 1011.8
20260506103038 31 315 0.0 0.0 0.00 0.00 0.00 100 1011.8
20260506101518 30 315 0.0 0.0 0.00 0.00 0.00 100 1011.7
20260506100020 30 315 0.0 0.0 0.00 0.00 0.00 100 1011.7
20260506094548 29 315 0.0 0.0 0.00 0.00 0.00 100 1011.9
20260506093044 29 315 0.0 0.0 0.00 0.00 0.00 4 1011.8
20260506091526 29 315 0.0 0.0 0.00 0.00 0.00 10 1011.8
20260506090022 29 315 0.0 0.0 0.00 0.00 0.00 15 1011.9
20260506084523 29 315 0.0 0.0 0.00 0.00 0.00 19 1011.9
20260506083014 29 315 0.0 0.0 0.00 0.00 0.00 20 1011.9
20260506081510 29 315 0.0 0.0 0.00 0.00 0.00 33 1011.9
20260506073057 32 315 0.0 0.0 0.00 0.00 0.00 50 1011.8
20260506071540 34 315 0.0 0.0 0.00 0.00 0.00 55 1011.8
20260506061522 36 360 0.0 0.0 0.00 0.00 0.00 53 1012.0
20260506044546 38 14 8.0 13.0 0.00 0.00 0.00 48 1011.9
20260506043038 38 355 7.0 14.0 0.00 0.00 0.00 47 1011.8
20260506041534 37 5 6.0 14.0 0.00 0.00 0.00 53 1011.5
20260506040029 37 24 4.0 9.0 0.00 0.00 0.00 54 1011.3
20260506034525 37 5 0.0 7.0 0.00 0.00 0.00 54 1011.0
20260506033031 37 5 2.0 6.0 0.00 0.00 0.00 54 1011.0
20260506031602 37 111 0.0 8.0 0.00 0.00 0.00 54 1010.9
20260506024537 37 5 3.0 10.0 0.00 0.00 0.00 53 1010.9
20260506023027 38 19 2.0 10.0 0.00 0.00 0.00 52 1010.8
20260506021506 38 9 4.0 14.0 0.00 0.00 0.00 53 1010.7
20260506020002 38 5 8.0 13.0 0.00 0.00 0.00 52 1010.5
20260506014612 39 12 5.0 15.0 0.00 0.00 0.00 51 1010.3
20260506013055 40 9 9.0 14.0 0.00 0.00 0.00 47 1010.1
20260506011549 40 360 8.0 15.0 0.00 0.00 0.00 44 1010.0
20260506010052 40 5 8.0 14.0 0.00 0.00 0.00 42 1009.8
20260506004548 41 5 10.0 15.0 0.00 0.00 0.00 39 1009.6
20260506003041 41 360 10.0 15.0 0.00 0.00 0.00 37 1009.6
20260506001515 42 360 8.0 14.0 0.00 0.00 0.00 46 1009.3
20260506000014 42 355 10.0 15.0 0.00 0.00 0.00 44 1009.2
20260505234554 42 5 10.0 17.0 0.00 0.00 0.00 43 1008.9
20260505233059 44 355 9.0 14.0 0.00 0.00 0.00 40 1008.9
20260505231545 44 350 3.0 14.0 0.00 0.00 0.00 32 1008.8
20260505230047 45 351 8.0 15.0 0.00 0.00 0.00 40 1008.8
20260505224538 45 5 10.0 15.0 0.00 0.00 0.00 36 1008.7
20260505223033 45 360 8.0 15.0 0.00 0.00 0.00 27 1008.4
20260505221527 45 350 3.0 11.0 0.00 0.00 0.00 100 1008.3
20260505220024 44 304 0.0 3.0 0.00 0.00 0.00 34 1008.2
20260505214505 44 302 0.0 0.0 0.00 0.00 0.00 27 1008.1
20260505213001 45 302 0.0 6.0 0.00 0.00 0.00 45 1007.9
20260505211557 45 294 4.0 10.0 0.00 0.00 0.00 52 1007.7
20260505210052 48 227 3.0 14.0 0.00 0.00 0.00 51 1007.3
20260505204551 48 159 3.0 14.0 0.00 0.00 0.00 52 1007.4
20260505203050 48 165 2.0 10.0 0.00 0.00 0.00 52 1007.3
20260505201542 48 227 5.0 12.0 0.00 0.00 0.00 51 1007.2
20260505200037 49 223 2.0 11.0 0.00 0.00 0.00 52 1007.1
20260505194533 49 268 5.0 13.0 0.00 0.00 0.00 47 1007.0
20260505193010 49 200 3.0 11.0 0.00 0.00 0.00 48 1007.1
20260505191506 49 282 1.0 10.0 0.00 0.00 0.00 51 1007.0
20260505190049 48 164 5.0 12.0 0.00 0.00 0.00 48 1007.0
20260505184552 47 239 3.0 9.0 0.00 0.00 0.00 50 1006.8
20260505183040 47 258 1.0 9.0 0.00 0.00 0.00 52 1006.9
20260505181536 47 233 3.0 11.0 0.00 0.00 0.00 51 1006.8
20260505180038 47 234 3.0 13.0 0.00 0.00 0.00 50 1006.6
20260505174527 47 230 5.0 14.0 0.00 0.00 0.00 49 1006.4
20260505173023 47 215 3.0 8.0 0.00 0.00 0.00 49 1006.2
20260505171519 46 263 3.0 10.0 0.00 0.00 0.00 49 1006.3
20260505170100 46 232 4.0 9.0 0.00 0.00 0.00 48 1006.3
20260505164556 45 251 4.0 8.0 0.00 0.00 0.00 48 1006.3
20260505163052 45 212 1.0 7.0 0.00 0.00 0.00 48 1006.3
20260505161548 44 269 3.0 8.0 0.00 0.00 0.00 47 1006.3
20260505153042 43 249 2.0 8.0 0.00 0.00 0.00 30 1006.3
20260505151530 42 253 0.0 4.0 0.00 0.00 0.00 18 1006.3